Regional Weather Roundup
Issued by NWS

Home | Current Version | Previous Version | Text Only | Print | Product List | Glossary Off
Versions: 1 2 3 4 5 6 7 8 9 10 11 12 13 14 15 16 17 18 19 20 21 22 23 24 25 26 27 28 29 30 31 32 33 34 35 36 37 38 39 40 41 42 43 44 45 46 47 48 49 50

000
ASUS43 KFSD 211210
RWRSD

WEATHER ROUNDUP FOR SOUTH DAKOTA
NATIONAL WEATHER SERVICE SIOUX FALLS SD
700 AM CDT SUN SEP 21 2014

NOTE: "FAIR" INDICATES FEW OR NO CLOUDS BELOW 12,000 FEET WITH NO
SIGNIFICANT WEATHER AND/OR OBSTRUCTIONS TO VISIBILITY.


SDZ001>005-009-010-012>017-211300-
NORTHWEST AND NORTH CENTRAL SOUTH DAKOTA

CITY           SKY/WX    TMP DP  RH WIND       PRES   REMARKS
BUFFALO          N/A     45  35  68 CALM      30.25S
FAITH            N/A     45  36  70 W10       30.29R
MOBRIDGE       CLEAR     45  41  86 N7        30.23R
$$

SDZ012>016-024>037-041>051-057-063-072>074-211300-
SOUTHWEST AND SOUTH CENTRAL SOUTH DAKOTA

CITY           SKY/WX    TMP DP  RH WIND       PRES   REMARKS
RAPID CTY ARPT CLEAR     43  35  73 NW8       30.33R
PIERRE         CLEAR     45  41  86 SW5       30.24R
CUSTER         CLEAR     41  32  70 NW5       30.39S
ELLSWORTH AFB  CLEAR     44  36  73 NW2       30.32S
PHILIP         CLEAR     41  36  82 W8        30.30R
PINE RIDGE     CLEAR     35  33  92 CALM      30.34R
WINNER         FAIR      47  38  71 W8        30.26R
$$

SDZ004>011-016>023-039-040-211300-
NORTHEAST SOUTH DAKOTA

CITY           SKY/WX    TMP DP  RH WIND       PRES   REMARKS
ABERDEEN       CLEAR     47  42  83 W6        30.18R
WATERTOWN      CLEAR     48  45  89 N8        30.15R
SISSETON         N/A     47  46  97 N7        30.13R
$$

SDZ017-020-022-023-036>040-048>070-211300-
SOUTHEAST SOUTH DAKOTA

CITY           SKY/WX    TMP DP  RH WIND       PRES   REMARKS
SIOUX FALLS    CLEAR     50  43  77 NW10      30.15R
HURON          CLEAR     45  40  82 NW8       30.19R
CHAMBERLAIN    CLEAR     47  40  76 NW9       30.24R
MITCHELL       CLEAR     48  42  80 W8        30.20R
YANKTON        CLEAR     48  41  76 W9        30.20R
$$

ABBREVIATIONS USED IN REMARKS
   TC - TEMPERATURE IN CELSIUS
  WCI - WIND CHILL INDEX
   HX - HEAT INDEX
  VSB - VISIBILITY




USA.gov is the U.S. government's official web portal to all federal, state and local government web resources and services.